Find STARLINK-37711

NORAD ID: 799501179 Int'l Des: 2026-160B Constellation: starlink operational

現在のビュー

3D地球を読み込み中...

About STARLINK-37711

STARLINK-37711 (NORAD 799501179) is a starlink constellation satellite launched Jul 9, 2026

STARLINK-37711について

説明を読み込み中...

次回通過

Passes for default location (London). Set your location on the main map for personalized predictions.

高度履歴

Loading altitude history...

軌道要素

1 99999C 2026160B 26195.37895832 .00420640 00000-0 554840-4 0 1954
2 99999 70.0028 28.6454 0009728 259.8748 260.9222 16.06255083 12
Epoch: Jul 14, 2026 • Age: 9 hours